Regional Weather Roundup
Issued by NWS Goodland, KS

Home | Current Version | Previous Version | Text Only | Print | Product List | Glossary On
Versions: 1 2 3 4 5 6 7 8 9 10 11 12 13 14 15 16 17 18 19 20 21 22 23 24 25 26 27 28 29 30 31 32 33 34 35 36 37 38 39 40 41 42 43 44 45 46 47 48 49 50
000
ASUS43 KGLD 172059
RWRGLD

GOODLAND FORECAST AREA HOURLY WEATHER ROUNDUP
NATIONAL WEATHER SERVICE GOODLAND KS
300 PM MDT WED SEP 17 2014

...OFFICIAL OBSERVATIONS...

CITY           SKY/WX    TMP DP  RH WIND       PRES   REMARKS
GOODLAND KS    MOSUNNY   87  54  32 SE10      29.91F
HILL CITY KS   SUNNY     88  63  43 E10       29.87F
IMPERIAL NEB   SUNNY     87  50  27 S3        29.91F
MCCOOK NEB     SUNNY     87  59  38 E9        29.89F
AKRON CO       SUNNY     88  41  19 NW7G21    29.99F
BURLINGTON CO  PTSUNNY   86  40  19 S13       29.96F
LIMON CO       MOSUNNY   83  39  21 SW20G25   30.05S
$$

...UNOFFICIAL OBSERVATIONS...

CITY           SKY/WX    TMP DP  RH WIND       PRES   REMARKS
COLBY KS       SUNNY     90  63  40 SE8       29.91F
GOVE KS          N/A     90  32  12 MISG        N/A
NORTON KS      SUNNY     82  55  39 E8        29.88F
SHARON SPRINGS   N/A     94  47  19 SW10        N/A
WAKEENEY KS      N/A     88  57  34 MISG        N/A
TRENTON NEB      N/A     86  32  14 SE12        N/A
YUMA CO          N/A     90  41  17 CALM        N/A
$$


USA.gov is the U.S. government's official web portal to all federal, state and local government web resources and services.